User: anonymous   Login
Location: Unspecified
(0.0000°N, 0.0000°E)
Time: 20:53:27
(UTC+00:00)
Language:

USA 245 - Orbit

View from above orbital plane
View from above orbital plane
View from above satellite
View from above satellite

Ground track
Ground track

The orbit data is extracted from the following two-line orbital elements,

1 39232U 13043A   18137.82926835 0.00010000  00000-0  10007-3 0    08
2 39232  97.9205 200.8680 0529393 353.0827   6.9172 14.77911260    09
Epoch (UTC): 17 May 2018 19:54:08
Eccentricity: 0.0529393
inclination: 97.9205°
perigee height: 264 km
apogee height: 1007 km
right ascension of ascending node: 200.8680°
argument of perigee: 353.0827°
revolutions per day: 14.77911260
mean anomaly at epoch: 6.9172°
orbit number at epoch: 0

The dashed part of the orbit path shows where the satellite is in the earth's shadow,  

DLR